Theta_e
299 293 287 290 292 292 289 287 286 286 291 292 291 294 298 301 305 307 309 310 311 312 313 312 311 309 307 305 305 305 305 305 306 305 304 302 301 301 301 302 304 304 306 307
294 288 293 293 292 292 290 286 284 287 290 292 289 289 292 297 300 307 310 308 310 309 308 308 307 305 304 303 303 304 305 305 306 305 305 303 302 301 302 303 305 305 306 307
290 292 295 293 292 290 286 286 284 286 287 289 288 286 288 293 295 298 301 306 304 306 306 305 304 302 301 301 301 303 305 305 306 306 306 305 304 303 302 302 303 304 306 307
289 292 293 292 288 288 283 288 289 288 283 279 287 278 285 287 291 293 293 293 294 297 295 298 299 297 297 298 299 302 304 305 306 306 305 303 301 300 301 302 302 303 304 304
285 289 289 288 288 288 285 290 289 287 281 280 282 278 284 286 286 290 291 292 292 293 293 293 295 298 300 301 301 301 304 305 306 305 305 303 301 301 302 302 303 303 303 304
287 291 292 291 292 289 290 288 285 282 279 274 278 278 279 283 287 288 288 292 293 293 294 296 298 301 301 302 302 303 304 305 305 305 304 303 302 301 301 301 301 302 303 303
284 287 291 293 288 290 288 284 271 273 271 273 272 276 282 288 288 290 290 292 292 294 295 296 297 299 301 301 302 303 304 302 302 303 302 301 301 300 300 300 301 301 301 301
276 275 287 290 288 284 284 281 275 270 269 273 278 276 283 288 291 292 293 293 293 293 294 295 296 296 297 298 298 299 299 299 298 298 298 298 298 298 299 300 300 301 300 301
278 279 289 290 290 287 283 277 283 277 274 272 274 279 286 288 288 290 291 292 291 291 293 294 294 295 295 295 295 295 295 295 295 295 295 295 295 296 296 297 298 299 300 302
282 278 286 289 290 288 285 286 277 276 272 272 274 276 278 283 286 289 290 290 290 291 291 292 293 293 293 293 293 293 294 294 293 293 293 294 293 294 295 295 295 296 297 299
284 280 281 285 282 281 282 280 281 280 278 273 272 277 284 283 287 289 289 290 290 291 291 291 291 292 292 291 291 292 292 293 292 293 292 292 293 294 293 293 293 294 295 296
284 280 274 279 285 287 284 283 281 275 275 273 273 276 287 287 288 290 290 291 291 291 290 291 291 291 290 290 290 290 291 291 292 292 292 292 292 292 292 292 293 295 295 296
286 281 272 277 280 283 281 283 284 282 279 276 271 275 288 289 288 290 290 291 291 290 290 290 290 290 290 289 290 290 290 290 291 291 291 291 291 291 290 291 293 294 295 295
290 282 278 274 278 281 279 282 282 280 274 276 275 278 283 287 288 290 291 291 290 290 290 290 289 289 289 289 289 289 290 290 290 291 291 290 290 290 291 291 292 293 294 294
286 279 280 281 283 283 283 283 282 278 279 277 278 280 284 287 288 290 292 291 290 290 289 289 288 288 288 288 289 289 289 290 290 290 290 290 290 291 291 291 291 292 292 292
285 278 280 278 281 281 280 281 283 282 282 281 281 282 287 287 290 290 291 291 290 290 290 290 289 289 289 289 288 289 290 290 290 289 289 290 290 290 290 290 290 290 290 290
282 279 278 275 279 279 276 280 282 281 283 284 280 284 284 285 288 291 291 291 291 290 290 289 289 288 288 288 289 289 290 291 290 290 290 290 291 290 290 290 290 289 289 289
282 281 279 276 276 271 278 282 283 282 283 285 284 285 286 286 287 289 290 292 290 290 289 288 288 288 288 289 289 288 288 289 289 288 288 289 289 289 289 289 288 288 288 289
284 281 277 276 273 277 279 280 280 280 279 284 285 285 286 285 285 285 288 290 290 288 288 287 287 288 288 288 287 286 286 286 286 286 286 287 287 287 288 287 287 287 287 287
284 283 278 276 273 273 279 281 284 281 276 282 284 284 285 285 282 284 286 287 287 287 287 287 288 288 286 286 286 285 285 285 285 286 287 287 287 287 286 287 286 287 287 288
278 278 277 276 274 277 283 284 285 275 279 283 284 285 286 284 286 287 286 286 287 287 288 288 287 286 286 286 285 284 284 284 286 287 287 287 287 286 286 286 286 286 286 286
278 276 275 276 275 273 285 283 280 282 285 285 285 286 286 285 285 285 286 286 287 286 287 286 285 285 286 286 285 284 283 285 286 286 286 285 285 286 287 285 284 285 285 284
279 281 278 280 280 285 285 284 286 286 286 286 286 287 287 285 285 286 286 286 286 286 285 286 285 284 285 285 285 283 284 285 284 284 284 284 284 284 285 284 283 283 283 283
280 284 281 282 286 287 287 286 287 287 287 287 287 287 287 286 286 286 286 286 286 285 285 285 284 283 283 284 284 284 283 284 283 282 282 283 283 284 283 284 284 282 281 282
280 283 282 281 285 285 287 286 287 287 287 287 287 288 288 287 286 287 287 286 286 285 285 285 284 283 283 283 283 283 283 283 282 282 282 282 283 282 282 283 282 281 282 283
282 283 282 282 287 287 284 286 288 287 288 288 287 286 287 288 287 287 286 285 285 284 284 283 283 283 283 283 283 284 284 283 282 281 281 281 282 281 281 281 281 286 288 290
Wind_Speed
2 3 5 8 11 7 7 6 6 2 1 6 2 6 7 5 5 7 7 8 7 9 7 7 8 8 7 6 7 7 6 5 3 1 1 1 1 2 2 2 4 3 2 2
3 3 6 5 8 6 7 6 3 1 1 5 3 3 2 1 3 7 10 8 9 5 6 6 7 6 8 7 7 6 6 5 4 2 2 2 1 2 3 3 4 4 3 4
3 1 8 3 2 9 3 9 4 7 2 5 6 5 1 2 1 4 3 6 5 9 10 8 7 7 4 5 6 6 6 6 4 4 2 1 1 2 2 2 3 3 4 4
3 9 5 5 6 3 4 2 6 9 6 4 3 5 5 5 6 6 6 7 8 8 5 5 7 5 6 5 3 4 4 5 3 4 2 2 2 1 2 2 2 5 5 6
1 4 6 6 4 3 2 4 6 5 6 5 3 6 7 3 7 8 9 8 8 7 7 8 8 7 5 4 3 3 3 3 2 3 3 2 2 2 2 3 5 5 5 5
2 1 3 0 4 3 1 6 10 6 4 4 2 5 7 7 11 7 4 7 8 7 7 6 5 6 4 3 3 3 3 1 1 1 2 2 4 5 4 4 4 4 4 4
6 5 2 2 4 4 7 7 5 5 5 6 3 3 10 6 6 8 11 9 9 8 8 7 7 6 5 4 2 1 1 2 4 3 2 2 3 3 5 5 4 5 4 3
5 6 6 5 1 2 4 4 8 7 4 4 1 7 10 4 4 7 7 9 8 8 7 7 6 6 6 5 5 5 5 4 5 4 4 4 4 2 3 3 3 4 3 4
3 2 1 1 1 2 5 3 1 8 4 4 4 7 8 2 1 5 9 8 8 7 8 8 7 6 6 5 5 5 5 5 6 5 5 5 5 5 4 6 4 3 5 4
2 3 3 2 1 1 3 1 3 4 4 4 5 6 8 6 8 6 8 9 7 6 7 7 6 6 4 5 4 5 5 5 3 4 3 3 4 5 5 4 6 6 6 5
2 4 4 2 3 6 2 2 1 2 4 6 2 9 6 7 9 12 8 8 9 8 7 7 6 5 5 4 5 4 4 4 4 4 3 4 4 5 4 4 5 5 6 6
0 5 2 2 3 2 1 5 4 6 3 0 4 9 2 5 9 10 9 8 7 8 8 7 7 6 5 5 4 4 3 3 2 2 3 4 4 5 5 5 6 6 6 6
1 1 3 8 5 3 4 5 5 4 3 5 6 9 2 2 5 8 10 9 8 9 8 7 6 6 5 4 3 3 3 3 3 3 4 5 6 6 6 6 6 6 6 6
2 2 5 9 6 4 4 4 4 5 4 5 8 7 4 3 7 7 8 10 9 9 9 7 6 6 5 4 3 3 2 1 2 3 4 5 5 5 5 5 6 6 6 6
3 3 3 5 6 5 6 6 7 9 5 6 5 8 6 9 12 15 12 8 8 8 7 7 7 6 5 5 3 3 2 1 1 4 5 5 5 5 5 6 6 6 6 6
2 2 1 4 3 6 6 8 9 9 6 9 5 17 10 6 6 7 10 12 12 12 11 9 8 8 8 7 6 5 2 2 2 4 3 3 4 4 5 5 6 6 6 6
4 4 3 5 3 4 9 14 15 6 6 9 10 10 6 7 9 14 15 15 15 12 12 11 10 7 6 6 5 4 3 3 4 3 4 4 5 5 5 5 5 5 6 5
5 3 3 3 3 5 7 3 3 11 7 12 5 5 8 8 4 4 4 13 10 10 11 9 8 7 7 6 5 4 4 4 4 3 3 4 5 5 5 5 6 6 4 5
3 4 2 3 4 8 5 3 6 8 8 10 14 6 3 2 3 2 4 7 10 9 8 7 7 6 6 7 6 6 4 4 3 2 2 3 3 4 5 6 6 5 4 5
4 3 4 2 3 7 4 3 2 2 7 3 6 8 8 3 3 5 4 6 8 8 7 8 7 5 7 5 5 5 4 3 1 0 2 3 3 3 4 4 5 3 3 4
4 2 7 5 5 9 8 5 4 3 6 2 2 5 8 6 5 3 8 5 6 7 8 7 7 7 7 6 6 5 4 4 3 2 2 2 3 4 4 4 3 4 5 5
10 9 5 4 4 11 7 4 7 6 2 2 2 4 6 3 5 7 7 8 8 8 7 7 6 6 5 6 6 5 4 3 2 2 2 3 3 3 3 4 5 4 4 5
5 9 8 12 9 4 8 5 6 5 4 4 3 4 8 8 6 8 7 8 8 9 7 5 6 6 5 6 5 5 3 2 2 2 3 3 4 4 3 3 5 4 4 4
4 4 3 2 6 11 8 7 5 8 7 5 4 6 8 8 9 8 8 8 7 7 7 6 7 6 5 5 5 3 1 2 2 3 4 3 4 5 4 3 3 3 4 4
5 6 5 5 7 3 7 9 8 7 6 5 5 8 11 8 8 8 8 8 7 7 5 6 6 6 6 5 3 3 3 2 3 3 4 4 3 4 5 4 4 4 5 5
5 8 6 8 8 5 5 3 5 9 9 9 8 5 4 7 10 7 6 6 6 6 5 5 5 5 5 4 3 3 3 2 3 4 4 4 3 4 3 4 6 9 11 15
Wind_Direction
194 150 193 218 207 200 128 127 132 293 267 95 135 147 171 157 155 161 178 181 183 184 191 176 165 168 166 178 178 181 167 185 143 139 242 42 301 303 297 277 279 283 294 311
166 161 225 254 223 171 115 132 120 25 0 97 161 98 322 200 169 182 182 190 192 175 161 174 173 173 180 172 183 180 189 177 186 160 181 149 196 257 259 286 297 289 285 265
107 250 315 14 36 86 51 155 168 149 94 48 104 354 234 240 217 126 192 188 191 195 185 185 177 192 177 186 192 192 195 189 189 168 114 56 17 345 328 332 317 316 293 272
45 324 4 44 64 22 126 128 140 136 97 173 53 241 268 237 227 182 174 168 192 179 167 162 171 172 192 215 212 211 195 182 177 157 136 166 187 256 262 279 290 306 307 296
338 25 13 66 328 333 156 131 133 103 91 93 351 78 261 166 231 230 205 194 187 175 154 161 179 185 200 152 178 177 164 161 155 162 169 179 241 239 273 300 314 313 306 302
17 343 70 8 301 289 312 86 47 59 84 37 267 127 269 199 199 214 193 211 181 169 161 150 139 134 135 134 137 139 144 189 257 217 220 232 264 298 317 310 310 306 305 308
355 346 19 77 335 4 50 56 23 20 9 211 283 47 245 223 226 196 189 182 176 169 161 152 144 139 127 114 82 66 81 35 30 55 35 338 302 294 286 294 293 313 313 303
124 346 352 19 92 287 43 127 150 169 182 238 36 231 254 242 282 241 170 161 158 160 157 150 147 129 112 101 91 82 77 71 49 47 25 13 9 347 313 309 309 292 272 279
123 323 243 253 155 99 281 20 194 104 32 66 221 281 300 230 30 145 141 150 162 158 153 144 133 127 123 106 88 94 89 69 46 35 23 16 3 360 338 326 309 298 300 291
130 68 321 316 350 35 80 220 44 358 128 241 284 279 238 225 204 176 163 172 157 146 141 137 137 134 117 107 98 78 74 73 49 33 25 8 349 350 342 345 346 336 321 321
132 108 279 5 202 185 49 6 100 149 145 164 175 260 216 225 205 185 179 169 164 164 158 149 142 127 118 103 92 91 78 73 40 25 7 11 357 357 357 355 339 332 321 324
51 132 158 235 328 343 209 179 150 119 226 198 147 274 271 256 200 171 182 170 171 161 160 155 150 145 130 118 112 102 77 67 35 10 16 12 8 6 6 351 338 334 330 324
16 20 51 350 353 6 241 206 165 124 82 212 131 265 305 31 155 176 165 173 172 167 162 158 147 151 151 142 126 105 70 40 17 23 28 23 17 11 360 351 344 340 340 336
113 178 179 183 204 147 219 209 203 141 133 189 216 265 254 182 176 176 182 181 175 171 166 162 161 159 155 145 125 102 76 39 32 44 39 31 16 9 0 349 351 349 348 350
139 230 216 255 240 208 210 209 185 199 202 174 268 215 256 212 197 200 187 165 165 172 164 169 163 170 158 154 153 143 127 98 90 63 48 24 7 10 1 2 358 353 356 348
155 246 350 281 288 243 263 240 220 219 218 253 247 264 211 218 150 155 186 179 183 183 182 172 172 170 177 175 177 171 159 111 100 85 70 31 19 15 5 360 357 353 348 343
166 153 106 261 335 329 289 228 209 197 208 184 202 226 169 209 202 196 191 189 189 181 174 176 177 173 167 172 156 155 160 139 100 69 32 16 6 1 356 351 356 351 342 332
155 147 148 253 4 246 242 168 187 216 238 219 259 209 202 208 208 194 203 187 177 170 166 167 165 164 166 159 153 151 144 135 116 72 29 7 3 358 351 353 350 338 332 341
151 136 211 199 205 293 286 211 178 175 274 210 227 206 213 126 75 349 186 178 172 169 162 160 159 153 152 154 161 151 136 132 106 58 12 352 350 348 351 354 344 329 339 334
84 90 149 146 210 234 237 179 169 146 287 184 174 203 168 174 165 248 167 133 123 127 140 148 152 141 143 165 151 139 141 140 141 240 308 327 337 337 329 323 325 305 319 315
150 197 208 203 242 285 247 162 154 144 245 196 210 183 161 190 197 197 132 106 125 138 149 144 146 157 170 158 148 149 162 196 211 235 276 314 328 327 320 327 316 322 325 328
166 156 194 152 192 269 149 77 176 212 206 208 184 173 179 143 141 140 130 137 145 145 142 147 144 158 167 164 154 168 196 211 216 246 305 324 323 318 325 326 323 325 329 330
206 188 179 185 210 238 213 200 210 171 180 210 198 176 170 152 176 161 158 157 159 159 156 155 155 164 179 180 176 177 222 208 250 280 292 296 308 309 309 319 322 323 329 319
255 175 212 140 233 232 226 239 234 197 204 200 197 177 170 173 169 175 161 164 165 166 162 156 155 169 180 182 189 203 223 238 241 269 285 298 315 311 316 306 286 307 308 313
197 137 198 257 283 292 270 232 219 224 221 192 181 183 187 164 183 171 173 170 166 158 153 154 166 175 194 191 204 205 224 238 277 287 286 283 274 285 298 290 272 277 259 229
194 187 189 243 218 206 225 233 198 201 207 205 169 173 191 180 175 160 165 162 155 159 156 161 178 179 198 200 220 254 264 257 275 289 283 275 276 279 271 278 298 287 268 280